{"data":{"norad_id":66110,"epoch":"2026-05-25T04:46:56.922816Z","epoch_age_seconds":68129,"freshness":"FRESH","line1":"1 66110U 25236AA  26145.19926994  .00018589  00000+0  63803-3 0  9992","line2":"2 66110  53.1571 108.8397 0001259  90.2641 269.8504 15.30207680 34657","mean_motion":15.3020768,"eccentricity":0.0001259,"inclination_deg":53.1571,"raan_deg":108.8397,"arg_perigee_deg":90.2641,"mean_anomaly_deg":269.8504,"bstar":0.00063803,"rev_number":3465,"period_min":94.104873398623,"perigee_km":474.32930428103,"apogee_km":476.05497255809,"semimajor_km":6853.3291384196,"source":"CELESTRAK","updated_at":"2026-05-25T13:38:21.059238Z"}}